Погода в Вязьме

Поиск расширенной информации на нашем сайте:

Полезная информация:

Новости сайта



02.01.2020
Опубликован Долгосрочный прогноз погоды по городам России и ближнего зарубежья на январь 2020 года.
Карты: Прогноз на январь и февраль 2020 года, Сравнение прогнозируемой аномалии приземной температуры воздуха на январь 2020 года по разным моделям.




Погода в Вязьме - сегодня

Время (UTC), дата Ветер
(°,м/с) 
Видим.   Явления Облачность Т
(°С)
Тd
(°С)
f(%) Тe
(°С)
Pmin
(гПа)
dP
(гПа)
Po
(мм)
O2
(г/м3)
Тmin Tmax R s Состояние
почвы
00 19.01.20 250 (З) 4000 м  дымка  10/10 300 м 
[St]
-2.2 -2.9 95 -4  1025.9  0.7  746  303           
03 19.01.20 250 (З) 4000 м  дымка  10/10 300 м 
[St]
-2.3 -2.9 96 -4  1026.7  0.8  746  304  -3.4         
06 19.01.20 270 (З) 4000 м  дымка  10/10 300 м 
[St]
-2 -2.7 95 -1  1027.4  0.7  747  304  -3.4      мокрый или
старый снег
50-90% 
09 19.01.20 240 (ЮЗ) 4000 м  дымка  10/10 300 м 
[St]
-0.9 -2.3 90 -3  1028  0.7  748  302           
12 19.01.20 240 (ЮЗ) 4000 м  дымка  10/10 300 м 
[St]
-0.8 -2 92 -3  1028.5  0.6  748  302           
15 19.01.20 250 (З) 4000 м  дымка  10/10 300 м 
[St]
-1.1 -2 94 -3  1030.1  1.4  749  303           
18 19.01.20 250 (З) 4000 м  дымка  10/10 300 м 
[St]
-1.1 -1.9 94 -4  1030.7  0.6  749  303    -0.8       
21 19.01.20 260 (З) 10 км  дымка  10/10 300 м 
[Sc]
-0.3 -1.5 92 -2  1030.8  0.2  750  303           
00 20.01.20 260 (З) 4000 м  дымка{ливн. осадки}  10/8 300 м средняя 
[Sc|Ac und]
+0.2 -1 92 -2  1030.6  0.1  750  302           
03 20.01.20 280 (З) 4000 м  дымка  10/6 300 м средняя 
[Sc|Ac und]
+0.6 -0.8 90 -2  1030.4  0.1  749  301  -1.2    0.0     
06 20.01.20 270 (З) 4000 м  снежные зёрна  10/10 300 м 
[St]
+0.6 -0.3 94 -2  1030.3  0.1  749  301  -1.1    0.0  мокрый или
старый снег
50-90% 
09 20.01.20 260 (З) 4000 м  дымка{снег}  9/8 300 м средняя 
[Sc|Ac trans]
+1.3 +0.1 92 -1  1029.8  -0.4  749  300           
12 20.01.20 260 (З) 10 км  {ливн. осадки, снег}  10/10 300 м 
[Sc]
+1.8 +0 88 1028.8  -0.9  748  300           
15 20.01.20 260 (З) 10 км    10/10 300 м 
[Sc]
+1.3 -0.6 87 -1  1028.2  -0.6  748  300      0.3     
18 20.01.20 260 (З) 10 км    9/9 300 м 
[Sc]
+1 -1.6 83 -1  1026.7  -1.5  747  300    +1.8  0.3     
21 20.01.20 270 (З) 10 км    9/9 300 м 
[St]
+0.8 -1.6 84 -2  1025.4  -1.3  746  300           
00 21.01.20 250 (З) 5{10}  10 км    10/10 300 м 
[Sc]
+0.9 -1.2 86 -2  1022  -3.3  743  299           
03 21.01.20 260 (З) 6{11}  10 км    10/10 300 м 
[Sc]
+1 -0.7 88 -2  1018.5  -3.3  741  297  +0.5         
06 21.01.20 260 (З) 7-13{13}  10 км    10/10 600 м 
[Sc]
+1.2 -0.1 91 -2  1015.3  -3.1  738  296  +0.5      мокрый или
старый снег
50-90% 
09 21.01.20 260 (З) 6-11{13}  4000 м  дымка  10/0 средняя 
[Ac und]
+1.8 +0.7 92 -1  1012.6  -2.5  737  295           
12 21.01.20 260 (З) 4{12}  4000 м  слаб. дождь  10/8 300 м средняя 
[Frnb|As op]
+2.2 +1.5 95 1010.2  -2.3  735  293           
15 21.01.20 260 (З) 6-10{12}  4000 м  слаб. дождь  10/8 300 м средняя 
[Frnb|As op]
+2.9 +2.1 94 1007.4  -2.6  733  292      0.7     
18 21.01.20 270 (З) 7-13{13}  4000 м  дымка{дождь}  10/10 300 м 
[Sc]
+4.3 +3.1 92 +1  1005.6  -1.6  732  290    +4.3     
21 21.01.20 300 (СЗ) 6-12{16}  10 км  {ливн. осадки}  8/8 300 м 
[Sc]
+2.8 -0 82 1006.9  1.1  733  292           
00 22.01.20 290 (З) 5{12}  10 км  {ливн. осадки}  8/8 600 м 
[Sc]
+1.3 -2.1 78 -1  1006.2  -0.8  732  294           
Время (UTC), дата Ветер
(°,м/с) 
Видим.   Явления Облачность Т
(°С)
Тd
(°С)
f(%) Тe
(°С)
Pmin
(гПа)
dP
(гПа)
Po
(мм)
O2
(г/м3)
Тmin Tmax R s Состояние
почвы

Для получения пояснительной информации подведите курсор к названию столбца.

ПОГОДА в Вязьме - архив

Всё, что Вы хотите узнать о погоде в Вязьме - удобно и подробно!

Выберите нужную дату (начиная с 1 января 2019* года) и нажмите кнопку "Найти".
Будут отображены архивные сводки погоды по пункту Вязьма, начиная с указанной даты.


Отображать данные в формате CSV (для использования в таблицах Excel)


Внимание! Наш архив погоды предназначен исключительно для личного некоммерческого использования в познавательных целях. Если Вам необходимы официальные справки о состоянии погоды (для производственных, юридических, коммерческих и т.п. целей), обращайтесь в органы Росгидромета.

*Примечание: данная дата относится к архиву по метеостанциям СССР (Россия, СНГ, Балтия).
Архив по метеостанциям Зарубежной Европы и Азии (кроме Китая) хранится 10 дней, по другим регионам земного шара (Китай, Африка, Америка, Австралия, Океания) - 1 день.

Вязьма - район местоположения метеостанции


Название, широта, долгота, высота метеостанции:
Вязьма 55.2°ш. 34.4°д. 251 м над ур. моря [Российская Федерация]

Дополнительная информация

В oтличие oт бoльшинства пoгoдных сайтoв мы публикуем пoдрoбную метеoинфoрмацию в детальнoм прoфессиoнальнoм фoрмате.

Характеристики температуры и влажнoсти вoздуха измеряются на высoте 2 м в тени вдали oт зданий и деревьев.
Скoрoсть ветра измеряется на высoте 10 м (на урoвне рoста челoвека скoрoсть ветра ниже в 1.5-2 раза). Если метеoстанция нахoдится в гoрoде или в лесу, тo скoрoсть ветра занижена на 2-4 м/с пo сравнению с oткрытым местoм. Скoрoсть ветра над акватoриями крупных рек и oзёр, а также на вершинах хoлмoв на 2-5 м/с выше, чем в oбычных услoвиях.
Атмoсфернoе давление в разных тoчках местнoсти мoжет значительнo oтличаться oт давления на метеoстанции, в зависимoсти oт услoвий рельефа (при пoдъёме на 10 м давление пoнижается примернo на 1 мм рт.ст.).